N7QNM-13 Weather Reports


Display with metric or nautical units.
time (UTC)temp
F
wind
direction
speed
MPH
gust
MPH
rain 1hr
in
rain 24hr
in
rain mn
in
humidity
%
barometer
mb
20210615215027 61 170 15.0 23.0 0.00 0.17 0.03 67 1019.6
20210615214021 61 164 14.0 19.0 0.00 0.17 0.03 66 1019.5
20210615213032 60 165 15.0 20.0 0.00 0.17 0.03 69 1019.4
20210615212025 60 144 16.0 20.0 0.00 0.17 0.03 69 1019.5
20210615211028 60 167 15.0 18.0 0.00 0.17 0.03 62 1019.4
20210615210029 60 144 13.0 15.0 0.00 0.17 0.03 61 1019.4
20210615205027 61 156 13.0 16.0 0.00 0.17 0.03 55 1019.5
20210615204021 60 146 12.0 18.0 0.00 0.17 0.03 55 1019.1
20210615203022 62 184 10.0 15.0 0.00 0.17 0.03 49 1019.7
20210615202022 64 166 11.0 16.0 0.00 0.17 0.03 46 1019.5
20210615201026 65 232 12.0 17.0 0.00 0.17 0.03 43 1019.2
20210615200026 65 231 9.0 13.0 0.00 0.17 0.03 45 1019.1
20210615195030 66 210 9.0 15.0 0.00 0.17 0.03 52 1019.0
20210615194028 65 168 10.0 13.0 0.00 0.17 0.03 59 1018.7
20210615193025 65 161 9.0 12.0 0.00 0.17 0.03 60 1018.4
20210615192023 65 175 9.0 15.0 0.00 0.17 0.03 60 1018.3
20210615191026 68 203 3.0 8.0 0.00 0.17 0.03 48 1018.2
20210615190026 69 270 4.0 5.0 0.00 0.17 0.03 46 1017.9
20210615185026 69 270 4.0 5.0 0.00 0.17 0.03 48 1017.7
20210615184032 68 291 6.0 9.0 0.00 0.17 0.03 48 1017.7
20210615183029 68 322 4.0 5.0 0.00 0.17 0.03 48 1017.5
20210615182024 70 301 3.0 5.0 0.00 0.17 0.03 44 1017.5
20210615181028 69 234 3.0 5.0 0.00 0.17 0.03 46 1017.6
20210615180023 69 246 2.0 4.0 0.00 0.17 0.03 45 1017.4
20210615175021 71 261 4.0 7.0 0.00 0.17 0.03 45 1017.5
20210615174026 72 292 2.0 5.0 0.00 0.17 0.03 47 1017.5
20210615173036 72 359 5.0 7.0 0.00 0.17 0.03 46 1017.4
20210615172025 71 283 3.0 4.0 0.00 0.17 0.03 48 1017.5
20210615171030 70 310 3.0 4.0 0.00 0.17 0.03 55 1017.6
20210615170029 68 221 2.0 3.0 0.00 0.17 0.03 59 1017.5
20210615165028 67 125 2.0 3.0 0.00 0.17 0.03 60 1017.7
20210615164024 65 284 1.0 3.0 0.00 0.17 0.03 64 1017.7
20210615163023 65 312 2.0 3.0 0.00 0.17 0.03 65 1017.9
20210615162026 65 284 2.0 3.0 0.00 0.17 0.03 67 1017.8
20210615161021 65 311 4.0 4.0 0.00 0.17 0.03 67 1017.6
20210615160027 64 303 3.0 5.0 0.00 0.17 0.03 67 1017.7
20210615155031 64 281 2.0 3.0 0.00 0.17 0.03 71 1017.6
20210615154029 64 300 4.0 5.0 0.00 0.17 0.03 71 1017.7
20210615153026 64 305 4.0 5.0 0.00 0.17 0.03 67 1017.5
20210615152027 65 299 3.0 5.0 0.00 0.17 0.03 67 1017.6
20210615151023 65 296 3.0 5.0 0.00 0.17 0.03 73 1017.6
20210615150021 64 293 2.0 4.0 0.00 0.17 0.03 77 1017.6
20210615145026 62 270 3.0 3.0 0.00 0.17 0.03 82 1017.5
20210615144035 61 272 4.0 6.0 0.00 0.17 0.03 84 1017.4
20210615143029 61 266 4.0 5.0 0.00 0.17 0.03 84 1017.4
20210615142029 61 256 3.0 6.0 0.00 0.17 0.03 85 1017.3
20210615141027 61 270 5.0 6.0 0.00 0.17 0.03 86 1017.3
20210615140023 60 270 5.0 6.0 0.00 0.17 0.03 87 1017.6
20210615135027 60 267 5.0 6.0 0.00 0.17 0.03 87 1017.5
20210615134021 59 277 4.0 5.0 0.00 0.17 0.03 88 1017.4
20210615133028 59 269 5.0 7.0 0.00 0.17 0.03 91 1017.2
20210615132030 58 267 2.0 2.0 0.00 0.17 0.03 95 1017.3
20210615131029 58 249 2.0 2.0 0.00 0.17 0.03 96 1017.1
20210615130023 58 225 0.0 2.0 0.00 0.17 0.03 96 1016.9
20210615125029 58 262 2.0 2.0 0.00 0.17 0.03 96 1017.0
20210615124022 57 0.0 2.0 0.00 0.17 0.03 96 1017.0
20210615123025 57 0.0 0.0 0.00 0.17 0.03 95 1017.0
20210615122023 57 184 2.0 3.0 0.00 0.17 0.03 94 1017.0
20210615121027 57 241 1.0 2.0 0.00 0.17 0.03 93 1016.9
20210615120031 58 203 2.0 3.0 0.00 0.17 0.03 91 1016.8
20210615115029 58 169 3.0 4.0 0.00 0.17 0.03 91 1016.9
20210615114027 57 100 1.0 2.0 0.00 0.17 0.03 97 1016.9
20210615113024 57 301 1.0 2.0 0.00 0.17 0.03 97 1016.9
20210615112022 57 0.0 0.0 0.00 0.17 0.03 96 1016.8
20210615111021 58 248 0.0 1.0 0.00 0.17 0.03 96 1016.8
20210615110026 58 180 1.0 2.0 0.00 0.17 0.03 97 1016.6
20210615105026 58 249 1.0 2.0 0.00 0.17 0.03 96 1016.7
20210615104026 58 0.0 0.0 0.00 0.17 0.03 96 1016.6
20210615103029 58 0.0 0.0 0.00 0.17 0.03 96 1016.6
20210615102033 58 0.0 0.0 0.00 0.17 0.03 95 1016.6
20210615101031 58 0.0 0.0 0.00 0.17 0.03 93 1016.6
20210615100022 59 203 0.0 2.0 0.00 0.17 0.03 92 1016.3
20210615095026 59 165 3.0 4.0 0.00 0.17 0.03 95 1016.3
20210615094025 58 118 1.0 2.0 0.00 0.17 0.03 95 1016.1
20210615093022 58 109 1.0 3.0 0.00 0.17 0.03 95 1016.2
20210615092034 58 87 1.0 2.0 0.01 0.17 0.03 94 1016.3
20210615091029 58 0.0 0.0 0.02 0.17 0.03 93 1016.5
20210615090028 59 0.0 0.0 0.03 0.17 0.03 93 1016.6
20210615085027 59 147 1.0 2.0 0.03 0.17 0.03 92 1016.7
20210615084023 59 0.0 0.0 0.03 0.17 0.03 90 1016.6
20210615083034 59 197 1.0 3.0 0.03 0.17 0.03 87 1016.8
20210615082029 59 242 3.0 5.0 0.02 0.16 0.02 90 1016.7
20210615081026 60 210 3.0 4.0 0.01 0.15 0.01 88 1016.8
20210615080028 61 233 2.0 3.0 0.00 0.14 0.00 89 1016.2
20210615075029 61 140 2.0 3.0 0.00 0.14 0.00 85 1016.3
20210615074027 61 171 1.0 2.0 0.00 0.14 0.00 89 1016.4
20210615073026 60 113 1.0 2.0 0.00 0.14 0.00 88 1015.8
20210615072023 60 0.0 0.0 0.00 0.14 0.00 89 1015.8
20210615071030 61 113 1.0 2.0 0.00 0.14 0.00 89 1015.8
20210615070026 61 0.0 0.0 0.00 0.14 0.00 88 1015.6
20210615065023 61 338 1.0 2.0 0.01 0.14 0.14 86 1016.1
20210615064021 62 270 3.0 4.0 0.01 0.14 0.14 82 1015.8
20210615063030 62 160 7.0 8.0 0.01 0.14 0.14 72 1015.6
20210615062027 61 175 3.0 3.0 0.02 0.14 0.14 80 1015.6
20210615061027 61 171 3.0 4.0 0.02 0.14 0.14 85 1015.3
20210615060024 61 186 2.0 3.0 0.04 0.14 0.14 84 1015.3
20210615055028 61 211 3.0 4.0 0.03 0.13 0.13 84 1015.4
20210615054026 61 201 2.0 3.0 0.03 0.13 0.13 88 1015.3
20210615053025 61 208 4.0 6.0 0.03 0.13 0.13 88 1015.2
20210615052022 62 229 3.0 4.0 0.02 0.12 0.12 88 1015.3
20210615051022 63 232 2.0 3.0 0.02 0.12 0.12 87 1015.4
20210615050026 63 231 3.0 4.0 0.00 0.10 0.10 82 1015.3
20210615045027 63 346 1.0 3.0 0.00 0.10 0.10 85 1014.8
20210615044024 62 229 3.0 4.0 0.00 0.10 0.10 87 1014.8
20210615043029 63 217 2.0 3.0 0.00 0.10 0.10 85 1014.7
20210615042028 63 0.0 0.0 0.00 0.10 0.10 87 1014.6
20210615041030 63 216 2.0 3.0 0.00 0.10 0.10 86 1014.4
20210615040023 63 204 2.0 3.0 0.00 0.10 0.10 86 1014.6
20210615035026 63 192 3.0 4.0 0.00 0.10 0.10 87 1014.6
20210615034027 63 205 2.0 4.0 0.00 0.10 0.10 90 1014.7
20210615033025 63 214 2.0 3.0 0.01 0.10 0.10 90 1014.7
20210615032024 63 203 1.0 2.0 0.09 0.10 0.10 89 1014.7
20210615031026 63 239 2.0 4.0 0.09 0.10 0.10 90 1014.5
20210615030021 63 239 3.0 5.0 0.10 0.10 0.10 90 1014.4
20210615025027 64 214 2.0 3.0 0.10 0.10 0.10 88 1014.5
20210615024027 63 250 5.0 6.0 0.10 0.10 0.10 88 1014.4
20210615023026 64 281 6.0 7.0 0.09 0.09 0.09 85 1014.3
20210615022026 65 250 7.0 10.0 0.01 0.01 0.01 78 1015.0
20210615021026 66 277 7.0 9.0 0.01 0.01 0.01 71 1014.0
20210615020022 68 270 7.0 9.0 0.00 0.00 0.00 66 1014.0
20210615015021 68 273 9.0 11.0 0.00 0.00 0.00 64 1013.3
20210615014029 68 271 11.0 14.0 0.00 0.00 0.00 64 1013.4
20210615013029 68 256 11.0 15.0 0.00 0.00 0.00 63 1013.6
20210615012026 70 267 17.0 22.0 0.00 0.00 0.00 59 1013.1
20210615011027 71 278 17.0 24.0 0.00 0.00 0.00 54 1013.4
20210615010025 72 299 15.0 21.0 0.00 0.00 0.00 51 1012.8
20210615005024 73 272 17.0 24.0 0.00 0.00 0.00 50 1012.6
20210615004028 74 276 16.0 20.0 0.00 0.00 0.00 48 1012.7
20210615003035 75 272 16.0 22.0 0.00 0.00 0.00 48 1012.9
20210615002029 77 272 18.0 23.0 0.00 0.00 0.00 49 1012.7
20210615001030 77 269 9.0 13.0 0.00 0.00 0.00 48 1012.4
20210615000028 78 274 10.0 12.0 0.00 0.00 0.00 46 1012.5
20210614235027 79 270 12.0 15.0 0.00 0.00 0.00 45 1011.9
20210614234022 80 265 9.0 13.0 0.00 0.00 0.00 45 1011.8
20210614233028 83 281 9.0 12.0 0.00 0.00 0.00 41 1011.7
20210614232027 84 280 7.0 10.0 0.00 0.00 0.00 41 1011.6
20210614231035 84 310 5.0 7.0 0.00 0.00 0.00 39 1011.4
20210614230027 85 278 8.0 11.0 0.00 0.00 0.00 38 1011.4
20210614225028 85 282 6.0 10.0 0.00 0.00 0.00 38 1011.4
20210614224026 84 304 4.0 7.0 0.00 0.00 0.00 39 1011.4
20210614223026 85 294 5.0 7.0 0.00 0.00 0.00 38 1011.5
20210614222026 83 294 3.0 5.0 0.00 0.00 0.00 40 1011.4
20210614221029 81 294 5.0 8.0 0.00 0.00 0.00 43 1011.4
20210614220027 81 282 5.0 7.0 0.00 0.00 0.00 42 1011.4